P/2001 Q6 (NEAT)                                                      

Epoch 2001 Nov. 27.0 TT = JDT 2452240.5  

T 2001 Nov. 9.46673 TT                                  Nakano

q   1.4081780            (2000.0)            P               Q

n   0.04360469     Peri.   43.32999     +0.53242966     -0.78548389

a   7.9943021      Node    22.13555     +0.34178569     -0.14148479

e   0.8238523      Incl.   56.85494     +0.77440377     +0.60249241

P  22.60 (+/- 0.05 day)

From 348 observations 2001 Aug. 28-2002 Mar. 24, mean residual 0".61.

Residuals in seconds of arc 

2001/                     011006 704 (2.9-  2.1-)   011104 349  0.2+  0.3-  

010828 644  0.1-  0.2-    011006 704 (2.0-  1.1-)   011104 349  0.3+  0.3-  

010828 644  0.0   0.2+    011006 704  1.4-  1.0-    011104 504  0.1-  0.0   

010828 644  0.3+  0.2+    011006 704 (2.6-  0.3-)   011104 504  0.1+  0.1-  

010828 046  0.8+  0.3+    011009 629  0.8+  0.0     011104 504  0.1-  0.3+  

010828 046  0.5-  0.4+    011009 629  0.2+  1.1+    011104 504  0.2+  0.0   

010828 046  0.5+  0.2+    011009 629  0.6+  1.0+    011104 504  0.2-  0.6-  

010828 046  0.7+  0.2+    011009 629  0.1-  0.8+    011104 504  0.2+  0.7-  

010828 046  0.5+  0.6+    011010 170  0.3+  0.0     011104 504  0.4+  0.1-  

010829 557  0.1-  0.1-    011010 170  0.4+  0.5+    011104 504  0.0   0.0   

010829 557  0.1-  0.1+    011010 170  0.2+  0.2+    011104 504  0.2+  0.2-  

010829 557  0.1-  0.2+    011010 170  0.3-  0.5+    011106 340  0.2-  0.0   

010829 557  0.5-  0.1-    011010 170  0.3+  0.3+    011106 340  0.3-  0.0   

010829 599  0.2-  1.0+    011011 349  0.4+  0.3-    011106 340  0.7+  0.1-  

010829 599  0.1-  0.4+    011011 349  0.1-  0.4-    011106 458 (1.4-  2.4-) 

010829 599  0.2-  0.2-    011011 349  0.1+  0.1+    011106 458  1.9-  0.8-  

010829 636 (4.3+  1.5-)   011011 107  0.4+  0.6+    011110 118  0.0   0.1-  

010829 636  1.1-  0.3+    011011 107  0.5+  0.1-    011110 118  0.3+  0.1-  

010829 649  0.4-  0.4+    011011 170  0.2+  0.2-    011110 118  0.1-  0.4-  

010829 649  0.1+  1.3+    011011 170  0.2-  0.1+    011110 349  0.2+  0.0   

010829 649  0.2-  0.1-    011011 170  0.2-  0.6+    011110 349  0.1+  0.4+  

010829 658  0.2+  0.1+    011012 340  1.4-  0.6-    011111 349  0.0   0.2+  

010829 658  0.4+  0.4-    011012 340  1.0-  0.1-    011111 349  0.2+  0.3-  

010829 658  0.7+  0.2+    011012 340  0.6-  0.5-    011111 349  0.2+  0.2-  

010829 711  0.2+  0.0     011012 340  0.5-  0.6-    011111 349  0.4+  0.1-  

010829 711  0.1+  0.8-    011012 360  0.5+  0.6+    011111 046  0.3-  0.5-  

010829 711  0.2+  0.1-    011012 360  0.4+  0.5+    011111 046  0.3-  0.7-  

010830 599  0.2+  0.6-    011012 349  0.2+  0.2-    011111 046  0.3-  0.5-  

010830 599  0.0   0.5+    011012 349  0.5+  0.1-    011111 046  0.3-  0.7-  

010830 599  0.1+  0.5-    011012 349  0.4+  0.4-    011114 235  0.7-  1.1-  

010831 402  0.5-  0.2+    011012 349  0.4+  0.0     011116 372  0.0   0.5+  

010831 402  0.4-  0.2+    011012 201  0.6+  0.7+    011118 143  0.6-  0.7+  

010831 402  0.4-  0.3+    011012 201  0.7+  0.7+    011118 143  0.1+  0.8-  

010904 644  0.8+  0.0     011012 201  0.6+  0.8+    011118 143  0.3+  1.4+  

010904 644  0.3+  0.5+    011013 349  0.4-  0.4+    011118 143  1.6+  0.2+  

010904 644  0.4+  0.1+    011013 349  0.4-  0.5+    011119 349  1.3+  0.1-  

010908 170 (0.1+  3.7+)   011013 349  0.4-  0.1+    011119 349  0.7+  0.2+  

010908 170  0.5-  1.1+    011013 355  0.1+  0.1+    011119 349  0.8+  0.3+  

010908 170  1.3-  0.2-    011013 355  0.3+  0.5-    011119 349  1.0+  0.3+  

010908 170  0.1+  0.7-    011013 355  0.1-  0.3-    011120 170 (2.9-  9.8+) 

010911 170  0.1+  0.4-    011013 215  0.0   0.1-    011120 170 (4.2-  9.1+) 

010911 170  0.5+  0.4-    011013 215  0.0   0.1+    011120 170 (4.7-  8.9+) 

010911 170  1.1+  1.8-    011013 215  0.1+  0.0     011120 235  1.1-  0.1+  

010911 170  1.1+  0.5-    011013 215  0.1+  0.0     011121 360  0.2-  0.4-  

010911 170  0.4-  0.3+    011013 215  0.0   0.0     011121 360  0.2-  0.4-  

010911 355  0.6-  0.1-    011013 215  0.0   0.1+    011121 903  0.4-  0.3-  

010911 355  0.0   0.5-    011013 941  0.4-  1.3+    011121 903  0.5+  0.4-  

010911 355  0.1-  0.2+    011013 941  0.7-  1.4+    011121 903  1.4+  0.2-  

010916 170  0.9+  0.2-    011013 941  0.6-  1.4+    011123 903  1.0+  0.0   

010916 170  1.2+  1.6+    011013 941 (0.9-  2.4+)   011123 903  1.4+  0.6+  

010916 342  0.3+  0.5+    011014 340  1.1+  0.0     011123 903  0.6+  0.3+  

010916 342  0.6+  0.2+    011014 340  0.6+  0.4-    011123 232  0.0   0.6-  

010918 921  0.7+  1.7-    011014 340  0.4-  0.2+    011123 232  0.7-  0.9-  

010918 921 (0.1-  2.6-)   011014 340  1.5+  0.8-    011124 235  1.3+  1.1-  

010918 921  0.8+  1.4-    011014 402  0.4+  0.4+    011124 349  0.8+  0.5+  

010918 349  0.1-  0.9+    011014 402  0.3+  0.4+    011124 349  0.2+  0.1+  

010918 360  0.5+  0.1-    011014 402  0.4+  0.3+    011124 349  0.1-  0.3+  

010918 360  0.4+  0.2-    011014 235 (1.1-  5.3+)   011124 118  0.3+  0.1-  

010918 349  0.7+  0.6+    011014 458  1.7+  0.1+    011124 118  0.2+  0.4+  

010918 349 (2.0+  1.1-)   011014 458  0.5+  0.0     011124 118  0.3+  0.0   

010919 699  1.6-  0.9-    011014 458 (2.9-  2.1-)   011126 118  0.3+  0.5-  

010919 699  0.2-  0.1+    011015 629  0.2+  0.6+    011126 118  0.2-  0.3+  

010919 699  0.3-  0.1-    011015 629  0.1-  0.2+    011126 349  0.4-  0.3-  

010919 699  1.3-  0.4-    011015 629  0.3+  0.4+    011126 349  0.2-  0.3-  

010920 704  1.7-  0.9-    011015 629  0.5+  1.1+    011126 349  0.2-  0.1-  

010920 704  0.9-  0.8-    011015 170  0.0   0.5+    011128 903  0.2+  0.9-  

010920 704  1.7-  0.7-    011015 170  0.1+  0.1-    011128 903  0.0   0.7-  

010920 704 (2.3-  1.7-)   011015 170  0.0   0.3+    011128 903  0.4+  0.3-  

010920 704 (2.2-  0.7-)   011017 750  0.0   0.4+    011130 372  0.4+  0.8+  

010921 170  0.5-  0.6-    011017 750  0.2-  0.2+    011130 232  0.2-  0.6+  

010921 170  0.6-  0.7-    011017 750  0.2+  0.5+    011130 232  0.6-  0.4-  

010921 170  0.0   0.9-    011017 629  1.2-  0.0     011202 903  0.8+  0.9+  

010921 170  0.0   0.4-    011017 629  1.6-  0.3+    011202 903  0.0   0.9+  

010921 372  0.4+  0.8+    011017 629  1.0-  0.6+    011202 903  0.0   1.3+  

010921 372  0.7+  1.0+    011017 629  1.4-  1.2+    011202 349  1.2+  0.3+  

010922 349  0.1+  0.0     011017 629  0.8-  1.6+    011202 349  1.4+  0.5+  

010922 349  0.2-  0.0     011018 340  0.4+  0.1-    011202 118  0.7+  1.1+  

010922 349  0.2-  0.4-    011018 340  0.0   0.8-    011202 118  0.5+  0.9+  

010922 349  0.5-  0.6-    011018 340  0.6-  0.1+    011202 118  0.6+  1.2+  

010923 642  0.8+  0.6+    011018 352  0.2+  0.9-    011208 349  0.2+  0.0   

010923 642 (2.3+  0.9+)   011018 352  0.7+  1.7-    011208 349  0.2+  0.1-  

010923 642  0.6-  0.0     011018 352  0.7+  1.8-    011208 349  0.2+  0.5-  

010923 642  0.5-  0.3+    011019 349  0.1+  0.3-    011208 349  1.0+  0.0   

010923 642  0.6+  0.1-    011019 349  0.1+  0.3-    011210 143  0.5+  0.5+  

010923 903  0.5-  0.8-    011019 349  0.2-  0.4-    011210 143  0.2-  0.2+  

010923 903  0.5+  0.7-    011019 349  0.3+  0.4-    011210 143  0.5+  0.4+  

010923 903  0.5-  0.3-    011019 349  0.2-  0.4-    011210 143  0.5+  0.6+  

010923 349  0.7+  0.6+    011023 340  0.2+  0.3-    011210 143  0.2-  0.2+  

010923 349  1.0+  0.0     011023 340  0.3+  0.2-    011210 143  0.6+  0.1+  

010923 349  0.3+  0.1+    011023 340  0.2+  0.2-    011215 118  0.2+  1.1+  

010923 349  0.9+  0.3+    011023 349  0.0   0.1+    011215 118  0.3+  1.0+  

010923 402  0.4+  0.1+    011023 349  0.0   0.3+    011216 235 (0.2+  5.5+) 

010923 402  0.6+  0.1-    011023 349  0.0   0.2+    011218 235  1.9-  0.3-  

010923 402  0.7+  0.3+    011023 349  0.2-  0.3+    011222 232  0.6-  0.6+  

010923 213  1.0-  0.1-    011023 970  0.1+  0.1-    011222 232  0.1-  0.5-  

010924 213  0.5+  1.2+    011023 970  0.5+  0.6-    011224 118  0.1+  1.0+  

010924 213  0.9-  0.3+    011023 970  0.4+  0.3-    011224 118  0.2+  0.7+  

010924 213  0.5+  0.5+    011023 970  0.1-  0.2+    011224 118  0.6+  0.4+  

010924 213  0.6-  0.5-    011023 970  0.4+  0.3-    2002/                   

010924 213  0.1-  0.2-    011023 970  0.2+  0.2+    020103 349  0.6-  0.9-  

010924 170  0.2-  0.4-    011025 235 (6.6-  4.7+)   020103 349  1.0+  0.3-  

010924 170  0.3-  0.4-    011026 402  0.0   0.2+    020103 349  1.0+  0.2-  

010924 349  0.2-  0.1+    011026 402  0.2-  0.3+    020104 613 (0.8-  2.6+) 

010924 349  0.0   0.2+    011026 402  0.1+  0.0     020104 613  0.6-  0.3-  

010924 349  0.6+  0.3+    011026 349  0.2-  0.6-    020104 235  0.0   0.3-  

010924 349  0.6+  0.3+    011026 349  0.3-  0.3-    020104 349  0.6-  0.2+  

010925 921  0.5+  0.4+    011026 349  0.1-  0.4-    020104 349  0.0   0.4+  

010925 921  0.6-  0.3-    011026 349  0.4+  0.1-    020107 235  1.5+  1.2+  

010925 921  0.2-  0.2-    011101 201  0.1-  0.4+    020111 235  1.0+  0.1+  

010925 704 (2.3-  0.9+)   011101 201  0.3-  0.3+    020117 235  0.9-  0.2-  

010925 704 (5.4-  1.4-)   011101 201  0.1-  0.5+    020125 349  0.2-  1.8+  

010925 704 (2.1-  1.6-)   011102 458  0.2-  0.3-    020125 349  0.2-  0.8+  

010925 704  1.5-  1.6-    011102 458 (2.3-  0.0 )   020125 349  1.4-  1.9+  

010925 704  1.5-  0.4+    011103 201  0.4-  0.2-    020215 118  0.0   1.6-  

010928 349  0.1-  0.2+    011103 201  0.5-  0.2-    020215 118  0.7-  0.5-  

010928 349  0.1+  0.3-    011103 201  0.5-  0.0     020215 118  0.5+  1.1-  

010928 349  0.2+  0.2-    011103 232  0.4+  0.1-    020224 360  0.5-  0.3-  

010928 360  0.5+  0.0     011103 232  1.0-  0.3-    020224 360  0.7-  0.5-  

010928 360  0.5+  0.2-    011103 232  0.4-  0.1-    020311 215  0.7-  0.1+  

010929 046  0.6+  0.1-    011103 232  0.5-  0.4+    020313 118 (0.1+  2.6-) 

